Flag for Canada Weather past 2 weeks in Grande Prairie, Alberta, Canada

Now
3 °F

Clear.


Feels Like: -6 °F
Forecast: -5 / 33 °F
Wind: 5 mph from North

Location: Grande Prairie

Current Time: Mar 3, 2015 at 10:09:48 PM

Latest Report: Mar 3, 2015 at 9:00 PM


Visibility: 25 mi

Pressure: 30.34 "Hg

Humidity: 72%

Dew point: -4 °F

Location of Grande PrairieLocation

Historic Weather in Grande Prairie — Graph

°F

Grande Prairie temperature yesterday

Maximum temperature yesterday: 27 °F (at 12:00 AM)
Minimum temperature yesterday: 1 °F (at 10:00 PM)
Average temperature yesterday: 13 °F

Past Weeks' High & Low Weather Summary

 TemperatureHumidityPressure
High45 °F (Feb 23, 2:00 PM)100% (Feb 20, 6:00 AM)30.73 "Hg (Feb 20, 6:00 AM)
Low-9 °F (Mar 3, 7:00 AM)44% (Mar 2, 3:00 PM)29.89 "Hg (Feb 18, 11:00 PM)
Average22 °F76%30.31 "Hg
* Reported Feb 16 9:00 PM — Mar 3 9:00 PM, Grande Prairie, Weather by CustomWeather, © 2015

Note: Actual official high and low records may vary slightly from our data, if they occured in-between our weather recording intervals... More about our weather records

Advertising

Grande Prairie weather history for previous 24 hours

 ConditionsComfort  
Time TempWeatherWind HumidityBarometerVisibility
9:00 PM
Tue, Mar 3
3 °FClear.5 mph72%30.34 "Hg25 mi
8:00 PM7 °FPassing clouds.3 mph66%30.35 "Hg25 mi
7:00 PM9 °FPassing clouds.6 mph66%30.36 "Hg25 mi
6:00 PM12 °FSunny.9 mph62%30.36 "Hg25 mi
5:00 PM16 °FSunny.10 mph57%30.38 "Hg25 mi
4:00 PM18 °FSunny.2 mph45%30.39 "Hg25 mi
3:00 PM16 °FSunny.2 mph48%30.39 "Hg25 mi
2:00 PM16 °FSunny.2 mph53%30.41 "Hg25 mi
1:00 PM14 °FSunny.2 mph57%30.42 "Hg25 mi
12:00 PM9 °FSunny.8 mph61%30.43 "Hg25 mi
11:00 AM5 °FPassing clouds.No wind60%30.44 "Hg25 mi
10:00 AM-4 °FPassing clouds.No wind71%30.46 "Hg25 mi
9:00 AM-8 °FScattered clouds.6 mph77%30.45 "Hg25 mi
8:00 AM-9 °FScattered clouds.3 mph70%30.46 "Hg25 mi
7:00 AM-9 °FPassing clouds.No wind70%30.46 "Hg25 mi
6:00 AM-8 °FPassing clouds.5 mph77%30.47 "Hg25 mi
5:00 AM-6 °FPassing clouds.5 mph70%30.47 "Hg25 mi
4:00 AM-8 °FClear.3 mph70%30.49 "Hg25 mi
3:00 AM3 °FClear.9 mph55%30.50 "Hg25 mi
2:00 AM1 °FPassing clouds.2 mph65%30.52 "Hg25 mi
1:00 AM3 °FPassing clouds.8 mph55%30.53 "Hg25 mi
12:00 AM1 °FClear.6 mph65%30.57 "Hg25 mi
11:00 PM
Mon, Mar 2
3 °FClear.5 mph60%30.57 "Hg25 mi
10:00 PM1 °FClear.7 mph65%30.58 "Hg25 mi
Weather by CustomWeather, © 2015

See weather overviewHow to use our weather pages